Tracking 29892 objects as of 21-Nov-2024
HD Live streaming from Space Station
objects crossing your sky now

ONEWEB-0139

Track ONEWEB-0139 now!
10-day predictions
ONEWEB-0139 is classified as:


NORAD ID: 47285
Int'l Code: 2020-100AD
Perigee: 1,219.7 km
Apogee: 1,222.0 km
Inclination: 87.9 °
Period: 109.7 minutes
Semi major axis: 7591 km
RCS: Unknown
Launch date: December 18, 2020
Source: United Kingdom (UK)
Launch site: VOSTOCHNY COSMODROME (VOSTO)
Your satellite tracking list
Your tracking list is empty




NASA's NSSDC Master Catalog

Two Line Element Set (TLE):
1 47285U 20100AD  24324.41536111 -.00000252  00000-0 -73508-3 0  9993
2 47285  87.8861 105.1041 0001474  96.7463 263.3833 13.12443620189337
Source of the keplerian elements: AFSPC